TimeEST,TemperatureF,Dew PointF,Humidity,Sea Level PressureIn,VisibilityMPH,Wind Direction,Wind SpeedMPH,Gust SpeedMPH,PrecipitationIn,Events,Conditions,WindDirDegrees,DateUTC
12:48 AM,69.8,68.0,94,30.03,9.0,South,2.3,-,N/A,,Clear,170,2013-02-13 05:48:00
12:58 AM,68.9,68.5,99,30.04,9.0,South,3.5,-,N/A,,Clear,170,2013-02-13 05:58:00
1:13 AM,69.8,68.0,94,30.03,6.0,South,2.3,-,N/A,,Clear,180,2013-02-13 06:13:00
1:18 AM,68.0,68.0,100,30.03,3.0,South,1.2,-,N/A,,Clear,190,2013-02-13 06:18:00
1:23 AM,68.0,68.0,100,30.03,3.0,South,1.2,-,N/A,,Clear,170,2013-02-13 06:23:00
1:43 AM,68.0,68.0,100,30.02,2.0,Calm,Calm,-,N/A,,Partly Cloudy,140,2013-02-13 06:43:00
1:48 AM,69.8,68.0,94,30.02,1.2,Calm,Calm,-,N/A,,Partly Cloudy,10,2013-02-13 06:48:00
1:58 AM,69.1,69.1,100,30.03,1.2,SE,1.2,-,N/A,,Partly Cloudy,140,2013-02-13 06:58:00
2:13 AM,68.0,68.0,100,30.01,2.0,South,2.3,-,N/A,,Clear,170,2013-02-13 07:13:00
2:18 AM,69.8,69.8,100,30.01,6.0,South,2.3,-,N/A,,Clear,170,2013-02-13 07:18:00
2:53 AM,69.8,69.8,100,30.00,9.0,Calm,Calm,-,N/A,,Clear,20,2013-02-13 07:53:00
2:58 AM,69.3,69.3,100,30.01,7.0,SSE,1.2,-,N/A,,Clear,160,2013-02-13 07:58:00
3:08 AM,69.8,69.8,100,30.00,1.5,SSE,2.3,-,N/A,,Clear,150,2013-02-13 08:08:00
3:23 AM,68.0,68.0,100,29.99,0.8,SE,3.5,-,N/A,,Clear,140,2013-02-13 08:23:00
3:28 AM,68.0,68.0,100,29.99,1.0,SSE,4.6,-,N/A,,Clear,150,2013-02-13 08:28:00
3:33 AM,68.0,68.0,100,29.99,1.8,SSE,4.6,-,N/A,,Clear,150,2013-02-13 08:33:00
3:38 AM,68.0,68.0,100,29.99,5.0,SSE,4.6,-,N/A,,Clear,160,2013-02-13 08:38:00
3:43 AM,68.0,68.0,100,29.99,5.0,SSE,4.6,-,N/A,,Clear,150,2013-02-13 08:43:00
3:58 AM,68.9,68.9,100,29.99,8.0,SSE,5.8,-,N/A,,Clear,150,2013-02-13 08:58:00
4:23 AM,69.8,69.8,100,29.98,10.0,SSE,4.6,-,N/A,,Clear,160,2013-02-13 09:23:00
4:58 AM,69.8,69.8,100,30.00,10.0,SE,3.5,-,N/A,,Clear,140,2013-02-13 09:58:00
5:13 AM,69.8,69.8,100,29.99,10.0,SE,2.3,-,N/A,,Clear,140,2013-02-13 10:13:00
5:28 AM,69.8,69.8,100,30.00,2.5,SE,2.3,-,N/A,,Clear,130,2013-02-13 10:28:00
5:33 AM,69.8,69.8,100,30.00,1.5,SE,2.3,-,N/A,,Clear,130,2013-02-13 10:33:00
5:38 AM,69.8,69.8,100,30.00,2.5,SSE,2.3,-,N/A,,Clear,150,2013-02-13 10:38:00
5:43 AM,69.8,69.8,100,30.00,1.2,SSE,2.3,-,N/A,,Clear,150,2013-02-13 10:43:00
5:58 AM,69.3,69.3,100,30.01,1.2,SSE,4.6,-,N/A,,Clear,150,2013-02-13 10:58:00
6:03 AM,68.0,68.0,100,30.00,2.0,SSE,4.6,-,N/A,,Clear,150,2013-02-13 11:03:00
6:08 AM,68.0,68.0,100,30.00,5.0,SSE,4.6,-,N/A,,Clear,150,2013-02-13 11:08:00
6:58 AM,69.6,69.6,100,30.02,9.0,SSE,3.5,-,N/A,,Clear,150,2013-02-13 11:58:00
7:58 AM,71.4,71.1,99,30.02,10.0,SSE,5.8,-,N/A,,Clear,150,2013-02-13 12:58:00
8:58 AM,76.1,72.7,89,30.03,10.0,South,10.4,-,N/A,,Clear,170,2013-02-13 13:58:00
9:38 AM,78.8,71.6,78,30.03,10.0,South,12.7,-,N/A,,Mostly Cloudy,170,2013-02-13 14:38:00
9:58 AM,79.9,71.8,76,30.04,10.0,South,10.4,18.4,N/A,,Mostly Cloudy,180,2013-02-13 14:58:00
10:13 AM,78.8,71.6,78,30.04,10.0,South,11.5,-,N/A,,Scattered Clouds,180,2013-02-13 15:13:00
10:58 AM,80.8,71.2,73,30.04,10.0,South,9.2,18.4,N/A,,Partly Cloudy,180,2013-02-13 15:58:00
11:58 AM,81.1,71.1,71,30.03,10.0,South,16.1,20.7,N/A,,Partly Cloudy,190,2013-02-13 16:58:00
12:58 PM,81.9,70.3,68,30.01,10.0,South,12.7,-,N/A,,Scattered Clouds,190,2013-02-13 17:58:00
1:58 PM,81.9,70.3,68,29.98,10.0,South,15.0,20.7,N/A,,Partly Cloudy,190,2013-02-13 18:58:00
2:23 PM,82.4,69.8,66,29.96,10.0,South,12.7,20.7,N/A,,Mostly Cloudy,180,2013-02-13 19:23:00
2:33 PM,80.6,69.8,70,29.96,10.0,South,11.5,-,N/A,,Mostly Cloudy,190,2013-02-13 19:33:00
2:38 PM,80.6,69.8,70,29.96,10.0,South,15.0,-,N/A,,Mostly Cloudy,180,2013-02-13 19:38:00
2:58 PM,81.7,70.3,68,29.97,10.0,South,13.8,-,N/A,,Mostly Cloudy,190,2013-02-13 19:58:00
3:08 PM,80.6,69.8,70,29.95,10.0,South,15.0,21.9,N/A,,Mostly Cloudy,180,2013-02-13 20:08:00
3:18 PM,80.6,69.8,70,29.95,10.0,SSW,13.8,-,N/A,,Scattered Clouds,210,2013-02-13 20:18:00
3:58 PM,80.6,70.3,71,29.96,10.0,SSW,15.0,-,N/A,,Partly Cloudy,210,2013-02-13 20:58:00
4:58 PM,80.1,70.9,73,29.96,10.0,South,13.8,-,N/A,,Clear,190,2013-02-13 21:58:00
5:55 PM,77.0,71.6,83,29.95,10.0,South,11.5,-,N/A,,Partly Cloudy,180,2013-02-13 22:55:00
5:58 PM,77.5,71.4,81,29.96,10.0,South,10.4,-,N/A,,Scattered Clouds,180,2013-02-13 22:58:00
6:58 PM,73.8,70.5,90,29.97,10.0,South,5.8,-,N/A,,Clear,180,2013-02-13 23:58:00
7:58 PM,71.6,70.0,95,29.98,10.0,South,3.5,-,N/A,,Clear,170,2013-02-14 00:58:00
8:58 PM,70.2,69.1,96,29.99,9.0,Calm,Calm,-,N/A,,Clear,0,2013-02-14 01:58:00
9:03 PM,69.8,69.8,100,29.98,10.0,Calm,Calm,-,N/A,,Clear,0,2013-02-14 02:03:00
9:08 PM,69.8,69.8,100,29.99,9.0,Calm,Calm,-,N/A,,Clear,10,2013-02-14 02:08:00
9:13 PM,69.8,69.8,100,29.99,8.0,Calm,Calm,-,N/A,,Clear,360,2013-02-14 02:13:00
9:38 PM,69.8,69.8,100,29.99,2.5,Calm,Calm,-,N/A,,Clear,0,2013-02-14 02:38:00
9:43 PM,69.8,69.8,100,29.99,1.5,Calm,Calm,-,N/A,,Clear,0,2013-02-14 02:43:00
9:48 PM,69.8,69.8,100,30.00,2.0,Calm,Calm,-,N/A,,Clear,0,2013-02-14 02:48:00
9:53 PM,69.8,69.8,100,30.00,7.0,Calm,Calm,-,N/A,,Clear,10,2013-02-14 02:53:00
9:58 PM,69.8,69.6,99,30.01,10.0,Calm,Calm,-,N/A,,Clear,0,2013-02-14 02:58:00
10:23 PM,69.8,69.8,100,30.00,7.0,South,1.2,-,N/A,,Clear,170,2013-02-14 03:23:00
10:28 PM,69.8,69.8,100,30.00,3.0,Calm,Calm,-,N/A,,Clear,0,2013-02-14 03:28:00
10:33 PM,69.8,69.8,100,30.00,1.2,Calm,Calm,-,N/A,,Clear,0,2013-02-14 03:33:00
10:38 PM,69.8,68.0,94,30.00,0.8,Calm,Calm,-,N/A,,Clear,0,2013-02-14 03:38:00
10:49 PM,68.0,68.0,100,30.00,3.0,Calm,Calm,-,N/A,,Clear,0,2013-02-14 03:49:00
10:53 PM,69.8,68.0,94,30.01,3.0,Calm,Calm,-,N/A,,Clear,0,2013-02-14 03:53:00
10:58 PM,68.7,68.4,99,30.01,3.0,Calm,Calm,-,N/A,,Clear,0,2013-02-14 03:58:00